When you browse on this site, cookies collect data to enhance your experience and personalize the content and advertising you see.
Visit our Privacy Policy to learn more. By continuing to use the site, you agree to this use of cookies and data.
  • In Latvia
  • List of Countries
  • For 7 days
  • Water Temperature
  • Weather Map
  • Weather Widgets
  • user-avatar
    Login

    Hourly Weather Shaki

    Today, 23 August, Friday

    Time Temperature Precipitation Wind Pressure Humidity
    00:00 +27°C° 0 mm 2 mps 733 mmHg 35%
    01:00 +26°C° 0 mm 2 mps 734 mmHg 36%
    02:00 +26°C° 0 mm 2 mps 734 mmHg 36%
    03:00 +26°C° 0 mm 2 mps 734 mmHg 36%
    04:00 +26°C° 0 mm 2 mps 734 mmHg 35%
    05:00 +26°C° 0 mm 1 mps 734 mmHg 34%
    06:00 +26°C° 0 mm 1 mps 734 mmHg 34%
    07:00 +28°C° 0 mm 2 mps 734 mmHg 31%
    08:00 +31°C° 0 mm 2 mps 734 mmHg 28%
    09:00 +34°C° 0 mm 3 mps 734 mmHg 24%
    10:00 +36°C° 0 mm 4 mps 734 mmHg 23%
    11:00 +39°C° 0 mm 6 mps 734 mmHg 22%
    12:00 +40°C° 0 mm 8 mps 734 mmHg 21%
    13:00 +41°C° 0 mm 8 mps 733 mmHg 20%
    14:00 +41°C° 0 mm 8 mps 733 mmHg 19%
    15:00 +41°C° 0 mm 8 mps 733 mmHg 18%
    16:00 +40°C° 0 mm 7 mps 733 mmHg 19%
    17:00 +39°C° 0 mm 7 mps 733 mmHg 20%
    18:00 +38°C° 0 mm 7 mps 733 mmHg 21%
    19:00 +35°C° 0 mm 6 mps 733 mmHg 24%
    20:00 +32°C° 0 mm 5 mps 733 mmHg 26%
    21:00 +29°C° 0 mm 4 mps 734 mmHg 29%
    22:00 +29°C° 0 mm 3 mps 734 mmHg 28%
    23:00 +28°C° 0 mm 3 mps 734 mmHg 28%

    Tomorrow, 24 August, Saturday

    Time Temperature Precipitation Wind Pressure Humidity
    00:00 +28°C° 0 mm 2 mps 734 mmHg 28%
    01:00 +27°C° 0 mm 2 mps 734 mmHg 27%
    02:00 +27°C° 0 mm 2 mps 734 mmHg 27%
    03:00 +26°C° 0 mm 1 mps 734 mmHg 27%
    04:00 +26°C° 0 mm 1 mps 734 mmHg 29%
    05:00 +26°C° 0 mm 1 mps 734 mmHg 30%
    06:00 +26°C° 0 mm 1 mps 734 mmHg 32%
    07:00 +28°C° 0 mm 1 mps 734 mmHg 29%
    08:00 +31°C° 0 mm 2 mps 734 mmHg 26%
    09:00 +34°C° 0 mm 2 mps 735 mmHg 23%
    10:00 +36°C° 0 mm 3 mps 734 mmHg 20%
    11:00 +39°C° 0 mm 5 mps 734 mmHg 18%
    12:00 +41°C° 0 mm 6 mps 734 mmHg 15%
    13:00 +41°C° 0 mm 7 mps 734 mmHg 15%
    14:00 +43°C° 0 mm 7 mps 733 mmHg 16%
    15:00 +43°C° 0 mm 7 mps 733 mmHg 16%
    16:00 +41°C° 0 mm 7 mps 733 mmHg 17%
    17:00 +39°C° 0 mm 7 mps 733 mmHg 19%
    18:00 +38°C° 0 mm 6 mps 733 mmHg 20%
    19:00 +35°C° 0 mm 6 mps 733 mmHg 23%
    20:00 +33°C° 0 mm 5 mps 734 mmHg 25%
    21:00 +30°C° 0 mm 4 mps 734 mmHg 28%
    22:00 +29°C° 0 mm 3 mps 734 mmHg 30%
    23:00 +28°C° 0 mm 2 mps 734 mmHg 32%

    Day after tomorrow, 25 August, Sunday

    Time Temperature Precipitation Wind Pressure Humidity
    00:00 +27°C° 0 mm 1 mps 734 mmHg 33%
    01:00 +27°C° 0 mm 1 mps 734 mmHg 34%
    02:00 +26°C° 0 mm 1 mps 734 mmHg 34%
    03:00 +26°C° 0 mm 1 mps 734 mmHg 34%
    04:00 +26°C° 0 mm 1 mps 734 mmHg 34%
    05:00 +26°C° 0 mm 1 mps 734 mmHg 34%
    06:00 +25°C° 0 mm 0 mps 734 mmHg 33%
    07:00 +29°C° 0 mm 1 mps 734 mmHg 31%
    08:00 +31°C° 0 mm 1 mps 734 mmHg 28%
    09:00 +34°C° 0 mm 2 mps 734 mmHg 25%
    10:00 +35°C° 0 mm 2 mps 734 mmHg 23%
    11:00 +37°C° 0 mm 2 mps 734 mmHg 21%
    12:00 +38°C° 0 mm 3 mps 734 mmHg 19%
    13:00 +38°C° 0 mm 3 mps 733 mmHg 18%
    14:00 +39°C° 0 mm 3 mps 733 mmHg 17%
    15:00 +39°C° 0 mm 3 mps 733 mmHg 16%
    16:00 +38°C° 0 mm 3 mps 733 mmHg 18%
    17:00 +37°C° 0 mm 2 mps 733 mmHg 19%
    18:00 +36°C° 0 mm 2 mps 733 mmHg 21%
    19:00 +32°C° 0 mm 2 mps 734 mmHg 22%
    20:00 +30°C° 0 mm 3 mps 734 mmHg 24%
    21:00 +28°C° 0 mm 3 mps 734 mmHg 25%
    22:00 +27°C° 0 mm 3 mps 735 mmHg 27%
    23:00 +26°C° 0 mm 2 mps 735 mmHg 28%

    26 August, Monday

    Time Temperature Precipitation Wind Pressure Humidity
    00:00 +26°C° 0 mm 2 mps 735 mmHg 30%
    01:00 +25°C° 0 mm 2 mps 735 mmHg 31%
    02:00 +25°C° 0 mm 1 mps 735 mmHg 33%
    03:00 +24°C° 0 mm 1 mps 735 mmHg 34%
    04:00 +25°C° 0 mm 1 mps 735 mmHg 35%
    05:00 +25°C° 0 mm 1 mps 735 mmHg 35%
    06:00 +23°C° 0 mm 0 mps 735 mmHg 36%
    07:00 +27°C° 0 mm 1 mps 735 mmHg 32%
    08:00 +29°C° 0 mm 2 mps 736 mmHg 28%
    09:00 +31°C° 0 mm 2 mps 736 mmHg 24%
    10:00 +33°C° 0 mm 3 mps 736 mmHg 23%
    11:00 +34°C° 0 mm 3 mps 736 mmHg 21%
    12:00 +36°C° 0 mm 3 mps 736 mmHg 20%
    13:00 +36°C° 0 mm 3 mps 736 mmHg 19%
    14:00 +37°C° 0 mm 3 mps 736 mmHg 19%
    15:00 +37°C° 0 mm 3 mps 735 mmHg 18%
    16:00 +36°C° 0 mm 3 mps 736 mmHg 20%
    17:00 +35°C° 0 mm 3 mps 736 mmHg 22%
    18:00 +34°C° 0 mm 3 mps 736 mmHg 24%
    19:00 +32°C° 0 mm 4 mps 736 mmHg 30%
    20:00 +29°C° 0 mm 4 mps 737 mmHg 35%
    21:00 +27°C° 0 mm 4 mps 737 mmHg 40%
    22:00 +27°C° 0 mm 4 mps 737 mmHg 44%
    23:00 +26°C° 0 mm 3 mps 737 mmHg 48%

    27 August, Tuesday

    Time Temperature Precipitation Wind Pressure Humidity
    00:00 +26°C° 0 mm 3 mps 738 mmHg 52%
    01:00 +26°C° 0 mm 3 mps 737 mmHg 52%
    02:00 +26°C° 0 mm 3 mps 737 mmHg 51%
    03:00 +26°C° 0 mm 3 mps 737 mmHg 50%
    04:00 +25°C° 0 mm 3 mps 737 mmHg 51%
    05:00 +25°C° 0 mm 3 mps 737 mmHg 51%
    06:00 +24°C° 0 mm 3 mps 737 mmHg 52%
    07:00 +26°C° 0 mm 3 mps 736 mmHg 47%
    08:00 +28°C° 0 mm 3 mps 736 mmHg 42%
    09:00 +30°C° 0 mm 4 mps 736 mmHg 38%
    10:00 +32°C° 0.1 mm 4 mps 736 mmHg 35%
    11:00 +33°C° 0.1 mm 4 mps 736 mmHg 33%
    12:00 +34°C° 0.1 mm 4 mps 735 mmHg 31%
    13:00 +35°C° 0.1 mm 4 mps 734 mmHg 30%
    14:00 +35°C° 0.1 mm 4 mps 734 mmHg 29%
    15:00 +35°C° 0.1 mm 3 mps 733 mmHg 28%
    16:00 +35°C° 0 mm 3 mps 733 mmHg 30%
    17:00 +34°C° 0 mm 3 mps 733 mmHg 32%
    18:00 +33°C° 0 mm 3 mps 733 mmHg 34%
    19:00 +30°C° 0 mm 3 mps 733 mmHg 36%
    20:00 +29°C° 0 mm 3 mps 734 mmHg 39%
    21:00 +27°C° 0 mm 3 mps 734 mmHg 42%
    22:00 +26°C° 0 mm 2 mps 734 mmHg 45%
    23:00 +26°C° 0 mm 2 mps 733 mmHg 49%

    28 August, Wednesday

    Time Temperature Precipitation Wind Pressure Humidity
    00:00 +25°C° 0 mm 1 mps 733 mmHg 52%
    01:00 +24°C° 0 mm 1 mps 733 mmHg 52%
    02:00 +24°C° 0 mm 1 mps 733 mmHg 53%
    03:00 +24°C° 0 mm 1 mps 733 mmHg 53%
    04:00 +22°C° 0 mm 0 mps 733 mmHg 54%
    05:00 +22°C° 0 mm 0 mps 733 mmHg 55%
    06:00 +22°C° 0 mm 0 mps 733 mmHg 56%
    07:00 +26°C° 0 mm 1 mps 733 mmHg 52%
    08:00 +28°C° 0 mm 1 mps 733 mmHg 47%
    09:00 +30°C° 0 mm 2 mps 733 mmHg 42%
    10:00 +31°C° 0.1 mm 2 mps 733 mmHg 39%
    11:00 +32°C° 0.1 mm 2 mps 733 mmHg 36%
    12:00 +35°C° 0.1 mm 2 mps 733 mmHg 34%
    13:00 +35°C° 0.1 mm 3 mps 733 mmHg 33%
    14:00 +36°C° 0.1 mm 3 mps 732 mmHg 31%
    15:00 +36°C° 0.1 mm 3 mps 732 mmHg 30%
    16:00 +35°C° 0 mm 3 mps 732 mmHg 32%
    17:00 +34°C° 0 mm 2 mps 732 mmHg 35%
    18:00 +32°C° 0 mm 2 mps 733 mmHg 37%
    19:00 +30°C° 0 mm 3 mps 733 mmHg 44%
    20:00 +28°C° 0 mm 4 mps 733 mmHg 50%
    21:00 +26°C° 0 mm 5 mps 734 mmHg 57%
    22:00 +25°C° 0 mm 5 mps 734 mmHg 59%
    23:00 +23°C° 0 mm 4 mps 734 mmHg 60%
    Show more